Hourly Data Report for February 13, 2021

TORONTO CITY
ONTARIO
Current Station Operator: ECCC - MSC

43°40'00.000" N
79°24'00.000" W
112.50 m
6158355
71508
XTO

Download Data

Hourly Data (February 2021)
Hourly Data Report for February 13, 2021
TIME
LST
Temp Definition
°C
Dew Point Definition
°C
Rel Hum Definition
%
Precip. Amount Definition
mm

Wind Dir Definition
10's deg

Wind Spd Definition
km/h
Visibility Definition
km
Stn Press Definition
kPa
Hmdx Definition


Wind Chill Definition


Weather Definition


00:00 -11.0 -20.9 44 0.0       101.63     LegendNANA
01:00 -11.5 -19.3 52 0.0       101.64     LegendNANA
02:00 -11.8 -19.1 54 0.0       101.57     LegendNANA
03:00 -11.7 -19.2 54 0.0       101.59     LegendNANA
04:00 -11.3 -19.2 52 0.0       101.59     LegendNANA
05:00 -11.0 -19.3 50 0.0       101.56     LegendNANA
06:00 -11.3 -19.0 53 0.0       101.59     LegendNANA
07:00 -11.7 -19.8 51 0.0       101.58     LegendNANA
08:00 -11.6 -19.6 52 0.0       101.62     LegendNANA
09:00 -11.0 -18.5 54 0.0       101.62     LegendNANA
10:00 -9.9 -15.7 62 0.0       101.58     LegendNANA
11:00 -9.8 -15.3 64 0.0       101.54     LegendNANA
12:00 -9.4 -15.5 61 0.0       101.48     LegendNANA
13:00 -9.2 -17.1 53 0.0       101.36     LegendNANA
14:00 -9.1 -16.8 54 0.0       101.23     LegendNANA
15:00 -9.1 -15.9 58 0.0       101.14     LegendNANA
16:00 -9.0 -14.3 65 0.0       101.06     LegendNANA
17:00 -8.9 -14.3 65 0.0       101.00     LegendNANA
18:00 -9.3 -13.7 70 0.0       100.98     LegendNANA
19:00 -10.0 -13.2 77 0.3       100.96     LegendNANA
20:00 -10.3 -13.2 79 0.3       100.82     LegendNANA
21:00 -9.8 -12.1 83 0.2       100.78     LegendNANA
22:00 -10.0 -12.2 83 0.3       100.74     LegendNANA
23:00 -9.6 -12.3 80 0.1       100.71     LegendNANA

Notes on Data Quality.

Legend

  • E = Estimated
  • M = Missing
  • NA = Not Available*
  • [empty] = Indicates an unobserved value
Date modified: